User: anonymous   Login
Location: Unspecified
(0.0000°N, 0.0000°E)
Time: 04:41:51
(UTC+00:00)
Language:

Cosmos 1950 - Orbit

View from above orbital plane
View from above orbital plane
View from above satellite
View from above satellite

Ground track
Ground track

The orbit data is extracted from the following two-line orbital elements,

1 19195U 88046A   18016.19287716 -.00000017  00000-0  21448-5 0  9991
2 19195  73.5985 266.4980 0024487 272.4633 249.2013 12.40885861342497
Epoch (UTC): 16 January 2018 04:37:44
Eccentricity: 0.0024487
inclination: 73.5985°
perigee height: 1483 km
apogee height: 1522 km
right ascension of ascending node: 266.4980°
argument of perigee: 272.4633°
revolutions per day: 12.40885861
mean anomaly at epoch: 249.2013°
orbit number at epoch: 34249

The dashed part of the orbit path shows where the satellite is in the earth's shadow,  

DLR